Time,TemperatureF,DewpointF,PressureIn,WindDirection,WindDirectionDegrees,WindSpeedMPH,WindSpeedGustMPH,Humidity,HourlyPrecipIn,Conditions,Clouds,dailyrainin,SoftwareType,DateUTC
2013-05-19 00:03:00,65.0,61.0,-100.00,SE,125,1.0,2.0,86,0.00,,,-99.99,,2013-05-19 04:03:00,
2013-05-19 00:13:00,65.0,61.0,-100.00,SE,125,1.0,3.0,86,0.00,,,-99.99,,2013-05-19 04:13:00,
2013-05-19 00:23:00,65.0,61.0,-100.00,SE,140,0.0,1.0,85,0.00,,,-99.99,,2013-05-19 04:23:00,
2013-05-19 00:33:00,65.0,61.0,-100.00,SE,130,1.0,2.0,85,0.00,,,-99.99,,2013-05-19 04:33:00,
2013-05-19 00:42:00,65.0,60.0,-100.00,ESE,110,1.0,2.0,85,0.00,,,-99.99,,2013-05-19 04:42:00,
2013-05-19 00:52:00,65.0,60.0,-100.00,ESE,120,1.0,3.0,84,0.00,,,-99.99,,2013-05-19 04:52:00,
2013-05-19 01:02:00,65.0,60.0,-100.00,SSE,150,0.0,1.0,84,0.00,,,-99.99,,2013-05-19 05:02:00,
2013-05-19 01:12:00,64.0,60.0,-100.00,SE,145,0.0,1.0,85,0.00,,,-99.99,,2013-05-19 05:12:00,
2013-05-19 01:22:00,64.0,60.0,-100.00,ESE,120,1.0,2.0,85,0.00,,,-99.99,,2013-05-19 05:22:00,
2013-05-19 01:32:00,64.0,60.0,-100.00,SE,125,1.0,2.0,85,0.00,,,-99.99,,2013-05-19 05:32:00,
2013-05-19 01:42:00,64.0,60.0,-100.00,ESE,105,1.0,2.0,86,0.00,,,-99.99,,2013-05-19 05:42:00,
2013-05-19 01:51:00,64.0,60.0,-100.00,SE,145,1.0,2.0,86,0.00,,,-99.99,,2013-05-19 05:51:00,
2013-05-19 02:02:00,64.0,59.0,-100.00,ESE,120,1.0,2.0,85,0.00,,,-99.99,,2013-05-19 06:02:00,
2013-05-19 02:12:00,64.0,59.0,-100.00,SSW,195,1.0,3.0,85,0.00,,,-99.99,,2013-05-19 06:12:00,
2013-05-19 02:21:00,63.0,59.0,-100.00,ESE,115,1.0,2.0,87,0.00,,,-99.99,,2013-05-19 06:21:00,
2013-05-19 02:32:00,63.0,59.0,-100.00,SE,135,1.0,2.0,88,0.00,,,-99.99,,2013-05-19 06:32:00,
2013-05-19 02:42:00,63.0,59.0,-100.00,SE,145,0.0,2.0,87,0.00,,,-99.99,,2013-05-19 06:42:00,
2013-05-19 02:52:00,63.0,59.0,-100.00,SE,125,0.0,2.0,87,0.00,,,-99.99,,2013-05-19 06:52:00,
2013-05-19 03:01:00,62.0,59.0,-100.00,ESE,120,0.0,2.0,87,0.00,,,-99.99,,2013-05-19 07:01:00,
2013-05-19 03:11:00,62.0,59.0,-100.00,South,180,0.0,2.0,88,0.00,,,-99.99,,2013-05-19 07:11:00,
2013-05-19 03:21:00,62.0,59.0,-100.00,SSE,155,0.0,2.0,88,0.00,,,-99.99,,2013-05-19 07:21:00,
2013-05-19 03:32:00,61.0,59.0,-100.00,ESE,120,1.0,2.0,90,0.00,,,-99.99,,2013-05-19 07:32:00,
2013-05-19 03:42:00,61.0,58.0,-100.00,SE,130,1.0,2.0,90,0.00,,,-99.99,,2013-05-19 07:42:00,
2013-05-19 03:52:00,62.0,59.0,-100.00,SSE,150,0.0,2.0,90,0.00,,,-99.99,,2013-05-19 07:52:00,
2013-05-19 04:02:00,62.0,59.0,-100.00,SSE,165,0.0,1.0,90,0.00,,,-99.99,,2013-05-19 08:02:00,
2013-05-19 04:12:00,62.0,59.0,-100.00,SSE,165,0.0,1.0,90,0.00,,,-99.99,,2013-05-19 08:12:00,
2013-05-19 04:22:00,61.0,58.0,-100.00,SE,145,1.0,4.0,90,0.00,,,-99.99,,2013-05-19 08:22:00,
2013-05-19 04:32:00,61.0,58.0,-100.00,SE,135,1.0,2.0,90,0.00,,,-99.99,,2013-05-19 08:32:00,
2013-05-19 04:42:00,60.0,58.0,-100.00,SE,130,1.0,1.0,92,0.00,,,-99.99,,2013-05-19 08:42:00,
2013-05-19 04:52:00,61.0,58.0,-100.00,SE,140,1.0,2.0,91,0.00,,,-99.99,,2013-05-19 08:52:00,
2013-05-19 05:02:00,61.0,58.0,-100.00,SSE,160,0.0,2.0,91,0.00,,,-99.99,,2013-05-19 09:02:00,
2013-05-19 05:12:00,61.0,58.0,-100.00,ESE,115,0.0,2.0,91,0.00,,,-99.99,,2013-05-19 09:12:00,
2013-05-19 05:21:00,61.0,58.0,-100.00,South,190,1.0,2.0,91,0.00,,,-99.99,,2013-05-19 09:21:00,
2013-05-19 05:32:00,60.0,58.0,-100.00,South,190,0.0,2.0,91,0.00,,,-99.99,,2013-05-19 09:32:00,
2013-05-19 05:43:00,60.0,58.0,-100.00,SE,130,0.0,1.0,91,0.00,,,-99.99,,2013-05-19 09:43:00,
2013-05-19 05:53:00,60.0,58.0,-100.00,SE,125,0.0,1.0,92,0.00,,,-99.99,,2013-05-19 09:53:00,
2013-05-19 06:03:00,60.0,58.0,-100.00,ESE,115,0.0,1.0,92,0.00,,,-99.99,,2013-05-19 10:03:00,
2013-05-19 06:12:00,60.0,58.0,-100.00,SE,130,0.0,2.0,92,0.00,,,-99.99,,2013-05-19 10:12:00,
2013-05-19 06:23:00,60.0,58.0,-100.00,SSE,160,0.0,1.0,93,0.00,,,-99.99,,2013-05-19 10:23:00,
2013-05-19 06:33:00,60.0,58.0,-100.00,SE,125,1.0,3.0,93,0.00,,,-99.99,,2013-05-19 10:33:00,
2013-05-19 06:42:00,60.0,58.0,-100.00,SE,130,1.0,1.0,93,0.00,,,-99.99,,2013-05-19 10:42:00,
2013-05-19 06:52:00,60.0,58.0,-100.00,SE,140,1.0,4.0,93,0.00,,,-99.99,,2013-05-19 10:52:00,
2013-05-19 07:02:00,60.0,58.0,-100.00,SE,135,1.0,2.0,93,0.00,,,-99.99,,2013-05-19 11:02:00,
2013-05-19 07:12:00,61.0,59.0,-100.00,ESE,120,1.0,2.0,92,0.00,,,-99.99,,2013-05-19 11:12:00,
2013-05-19 07:21:00,62.0,59.0,-100.00,ESE,120,1.0,3.0,89,0.00,,,-99.99,,2013-05-19 11:21:00,
2013-05-19 07:32:00,63.0,60.0,-100.00,SE,140,1.0,4.0,87,0.00,,,-99.99,,2013-05-19 11:32:00,
2013-05-19 07:42:00,64.0,59.0,-100.00,ESE,115,1.0,3.0,86,0.00,,,-99.99,,2013-05-19 11:42:00,
2013-05-19 07:52:00,64.0,59.0,-100.00,SE,140,1.0,4.0,86,0.00,,,-99.99,,2013-05-19 11:52:00,
2013-05-19 08:01:00,64.0,59.0,-100.00,ESE,120,2.0,4.0,86,0.00,,,-99.99,,2013-05-19 12:01:00,
2013-05-19 08:12:00,64.0,60.0,-100.00,ESE,105,1.0,3.0,85,0.00,,,-99.99,,2013-05-19 12:12:00,
2013-05-19 08:22:00,65.0,60.0,-100.00,ESE,115,1.0,4.0,84,0.00,,,-99.99,,2013-05-19 12:22:00,
2013-05-19 08:32:00,65.0,60.0,-100.00,East,100,1.0,4.0,85,0.00,,,-99.99,,2013-05-19 12:32:00,
2013-05-19 08:42:00,65.0,60.0,-100.00,SSE,160,1.0,3.0,83,0.00,,,-99.99,,2013-05-19 12:42:00,
2013-05-19 08:52:00,65.0,60.0,-100.00,ESE,110,1.0,2.0,83,0.00,,,-99.99,,2013-05-19 12:52:00,
2013-05-19 09:01:00,65.0,60.0,-100.00,ESE,115,1.0,3.0,83,0.00,,,-99.99,,2013-05-19 13:01:00,
2013-05-19 09:11:00,66.0,60.0,-100.00,ESE,115,1.0,5.0,81,0.00,,,-99.99,,2013-05-19 13:11:00,
2013-05-19 09:21:00,67.0,61.0,-100.00,East,100,1.0,3.0,81,0.00,,,-99.99,,2013-05-19 13:21:00,
2013-05-19 09:32:00,67.0,61.0,-100.00,ESE,115,1.0,5.0,78,0.00,,,-99.99,,2013-05-19 13:32:00,
2013-05-19 09:42:00,68.0,61.0,-100.00,East,80,1.0,4.0,79,-99.99,,,-99.99,,2013-05-19 13:42:00,
2013-05-19 09:52:00,68.0,60.0,-100.00,SSE,155,1.0,6.0,76,-99.99,,,-99.99,,2013-05-19 13:52:00,
2013-05-19 10:02:00,70.0,60.0,-100.00,East,95,3.0,7.0,72,0.00,,,-99.99,,2013-05-19 14:02:00,
2013-05-19 10:11:00,71.0,61.0,-100.00,South,170,2.0,7.0,71,-99.99,,,-99.99,,2013-05-19 14:11:00,
2013-05-19 10:21:00,72.0,61.0,-100.00,East,100,2.0,6.0,69,-99.99,,,-99.99,,2013-05-19 14:21:00,
2013-05-19 10:32:00,71.0,61.0,-100.00,SSW,205,4.0,9.0,69,-99.99,,,-99.99,,2013-05-19 14:32:00,
2013-05-19 10:42:00,72.0,62.0,-100.00,SSW,200,4.0,9.0,69,-99.99,,,-99.99,,2013-05-19 14:42:00,
2013-05-19 10:52:00,73.0,61.0,-100.00,SSW,200,6.0,9.0,67,-99.99,,,-99.99,,2013-05-19 14:52:00,
2013-05-19 11:02:00,73.0,62.0,-100.00,South,190,6.0,11.0,68,-99.99,,,-99.99,,2013-05-19 15:02:00,
2013-05-19 11:12:00,73.0,62.0,-100.00,SSW,195,4.0,12.0,68,-99.99,,,-99.99,,2013-05-19 15:12:00,
2013-05-19 11:22:00,73.0,61.0,-100.00,SSW,195,6.0,10.0,67,-99.99,,,-99.99,,2013-05-19 15:22:00,
2013-05-19 11:33:00,73.0,62.0,-100.00,SSW,205,5.0,11.0,67,-99.99,,,-99.99,,2013-05-19 15:33:00,
2013-05-19 11:43:00,75.0,62.0,-100.00,SE,145,3.0,11.0,64,-99.99,,,-99.99,,2013-05-19 15:43:00,
2013-05-19 11:53:00,74.0,62.0,-100.00,SSW,195,6.0,12.0,64,-99.99,,,-99.99,,2013-05-19 15:53:00,
2013-05-19 12:03:00,76.0,63.0,-100.00,SW,215,2.0,10.0,63,-99.99,,,-99.99,,2013-05-19 16:03:00,
2013-05-19 12:12:00,75.0,62.0,-100.00,SE,135,3.0,9.0,62,-99.99,,,-99.99,,2013-05-19 16:12:00,
2013-05-19 12:23:00,75.0,62.0,-100.00,ESE,115,2.0,10.0,64,-99.99,,,-99.99,,2013-05-19 16:23:00,
2013-05-19 12:32:00,74.0,62.0,-100.00,SSW,200,9.0,16.0,64,-99.99,,,-99.99,,2013-05-19 16:32:00,
2013-05-19 12:42:00,75.0,63.0,-100.00,SSW,205,4.0,11.0,65,-99.99,,,-99.99,,2013-05-19 16:42:00,
2013-05-19 12:52:00,76.0,62.0,-100.00,South,180,3.0,8.0,61,-99.99,,,-99.99,,2013-05-19 16:52:00,
2013-05-19 13:02:00,76.0,62.0,-100.00,South,190,4.0,9.0,62,-99.99,,,-99.99,,2013-05-19 17:02:00,
2013-05-19 13:12:00,76.0,62.0,-100.00,East,80,2.0,6.0,61,-99.99,,,-99.99,,2013-05-19 17:12:00,
2013-05-19 13:22:00,75.0,61.0,-100.00,SSW,200,7.0,12.0,61,-99.99,,,-99.99,,2013-05-19 17:22:00,
2013-05-19 13:32:00,76.0,62.0,-100.00,SE,130,3.0,12.0,61,-99.99,,,-99.99,,2013-05-19 17:32:00,
2013-05-19 13:42:00,76.0,61.0,-100.00,SSW,200,7.0,11.0,60,-99.99,,,-99.99,,2013-05-19 17:42:00,
2013-05-19 13:52:00,77.0,63.0,-100.00,ESE,105,2.0,9.0,62,-99.99,,,-99.99,,2013-05-19 17:52:00,
2013-05-19 14:02:00,76.0,62.0,-100.00,SSW,195,4.0,10.0,61,-99.99,,,-99.99,,2013-05-19 18:02:00,
2013-05-19 14:12:00,77.0,63.0,-100.00,NNE,30,1.0,11.0,62,0.00,,,-99.99,,2013-05-19 18:12:00,
2013-05-19 14:22:00,77.0,63.0,-100.00,SE,130,2.0,7.0,62,-99.99,,,-99.99,,2013-05-19 18:22:00,
2013-05-19 14:32:00,76.0,63.0,-100.00,ESE,120,2.0,5.0,63,0.00,,,-99.99,,2013-05-19 18:32:00,
2013-05-19 14:43:00,76.0,63.0,-100.00,SE,135,1.0,5.0,62,0.00,,,-99.99,,2013-05-19 18:43:00,
2013-05-19 14:52:00,76.0,62.0,-100.00,SE,130,2.0,6.0,63,0.00,,,-99.99,,2013-05-19 18:52:00,
2013-05-19 15:01:00,76.0,63.0,-100.00,South,180,2.0,6.0,64,0.00,,,-99.99,,2013-05-19 19:01:00,
2013-05-19 15:11:00,76.0,61.0,-100.00,SSW,205,6.0,10.0,59,-99.99,,,-99.99,,2013-05-19 19:11:00,
2013-05-19 15:22:00,78.0,62.0,-100.00,SSE,165,2.0,9.0,57,-99.99,,,-99.99,,2013-05-19 19:22:00,
2013-05-19 15:32:00,80.0,62.0,-100.00,SSW,205,2.0,7.0,54,-99.99,,,-99.99,,2013-05-19 19:32:00,
2013-05-19 15:42:00,78.0,62.0,-100.00,SE,125,4.0,7.0,58,-99.99,,,-99.99,,2013-05-19 19:42:00,
2013-05-19 15:52:00,78.0,64.0,-100.00,East,85,2.0,6.0,61,-99.99,,,-99.99,,2013-05-19 19:52:00,
2013-05-19 16:02:00,78.0,64.0,-100.00,SE,130,2.0,7.0,62,-99.99,,,-99.99,,2013-05-19 20:02:00,
2013-05-19 16:11:00,80.0,62.0,-100.00,South,185,4.0,11.0,54,-99.99,,,-99.99,,2013-05-19 20:11:00,
2013-05-19 16:21:00,80.0,61.0,-100.00,South,185,3.0,11.0,53,-99.99,,,-99.99,,2013-05-19 20:21:00,
2013-05-19 16:32:00,80.0,62.0,-100.00,SSW,210,5.0,10.0,54,-99.99,,,-99.99,,2013-05-19 20:32:00,
2013-05-19 16:42:00,78.0,62.0,-100.00,SSW,200,4.0,12.0,56,-99.99,,,-99.99,,2013-05-19 20:42:00,
2013-05-19 16:52:00,79.0,63.0,-100.00,ESE,115,1.0,7.0,58,-99.99,,,-99.99,,2013-05-19 20:52:00,
2013-05-19 17:02:00,79.0,62.0,-100.00,South,190,6.0,9.0,55,-99.99,,,-99.99,,2013-05-19 21:02:00,
2013-05-19 17:11:00,78.0,62.0,-100.00,SSW,195,3.0,9.0,58,-99.99,,,-99.99,,2013-05-19 21:11:00,
2013-05-19 17:22:00,78.0,62.0,-100.00,SSW,200,3.0,7.0,58,-99.99,,,-99.99,,2013-05-19 21:22:00,
2013-05-19 17:32:00,80.0,65.0,-100.00,SSW,200,2.0,8.0,62,-99.99,,,-99.99,,2013-05-19 21:32:00,
2013-05-19 17:43:00,79.0,62.0,-100.00,SSW,205,1.0,7.0,56,-99.99,,,-99.99,,2013-05-19 21:43:00,
2013-05-19 17:53:00,79.0,62.0,-100.00,NE,55,0.0,6.0,56,-99.99,,,-99.99,,2013-05-19 21:53:00,
2013-05-19 18:03:00,80.0,63.0,-100.00,SSW,195,2.0,7.0,55,-99.99,,,-99.99,,2013-05-19 22:03:00,
2013-05-19 18:12:00,80.0,62.0,-100.00,SSW,200,1.0,5.0,55,-99.99,,,-99.99,,2013-05-19 22:12:00,
2013-05-19 18:23:00,79.0,62.0,-100.00,South,185,3.0,8.0,57,-99.99,,,-99.99,,2013-05-19 22:23:00,
2013-05-19 18:33:00,79.0,62.0,-100.00,South,185,2.0,6.0,57,-99.99,,,-99.99,,2013-05-19 22:33:00,
2013-05-19 18:42:00,79.0,63.0,-100.00,SSW,195,2.0,7.0,58,0.00,,,-99.99,,2013-05-19 22:42:00,
2013-05-19 18:52:00,79.0,63.0,-100.00,SSW,200,2.0,9.0,59,0.00,,,-99.99,,2013-05-19 22:52:00,
2013-05-19 19:03:00,78.0,63.0,-100.00,SSE,150,1.0,4.0,59,0.00,,,-99.99,,2013-05-19 23:03:00,
2013-05-19 19:12:00,78.0,63.0,-100.00,SE,140,1.0,5.0,61,0.00,,,-99.99,,2013-05-19 23:12:00,
2013-05-19 19:22:00,76.0,63.0,-100.00,ESE,120,1.0,3.0,63,0.00,,,-99.99,,2013-05-19 23:22:00,
2013-05-19 19:32:00,76.0,64.0,-100.00,ESE,115,1.0,5.0,66,0.00,,,-99.99,,2013-05-19 23:32:00,
2013-05-19 19:42:00,77.0,64.0,-100.00,South,190,2.0,6.0,64,0.00,,,-99.99,,2013-05-19 23:42:00,
2013-05-19 19:52:00,77.0,64.0,-100.00,East,100,1.0,4.0,63,-99.99,,,-99.99,,2013-05-19 23:52:00,
2013-05-19 20:02:00,78.0,64.0,-100.00,ESE,120,0.0,3.0,62,-99.99,,,-99.99,,2013-05-20 00:02:00,
2013-05-19 20:12:00,77.0,64.0,-100.00,South,185,1.0,6.0,63,0.00,,,-99.99,,2013-05-20 00:12:00,
2013-05-19 20:22:00,76.0,64.0,-100.00,ESE,115,0.0,4.0,66,0.00,,,-99.99,,2013-05-20 00:22:00,
2013-05-19 20:32:00,74.0,65.0,-100.00,ESE,110,0.0,3.0,71,0.00,,,-99.99,,2013-05-20 00:32:00,
2013-05-19 20:42:00,74.0,64.0,-100.00,South,175,1.0,3.0,71,0.00,,,-99.99,,2013-05-20 00:42:00,
2013-05-19 20:52:00,73.0,64.0,-100.00,ESE,110,0.0,5.0,75,0.00,,,-99.99,,2013-05-20 00:52:00,
2013-05-19 21:01:00,72.0,64.0,-100.00,SE,125,0.0,1.0,76,0.00,,,-99.99,,2013-05-20 01:01:00,
2013-05-19 21:11:00,71.0,64.0,-100.00,ESE,105,0.0,2.0,76,0.00,,,-99.99,,2013-05-20 01:11:00,
2013-05-19 21:21:00,71.0,64.0,-100.00,SE,130,0.0,5.0,77,0.00,,,-99.99,,2013-05-20 01:21:00,
2013-05-19 21:32:00,72.0,64.0,-100.00,SE,130,0.0,4.0,76,0.00,,,-99.99,,2013-05-20 01:32:00,
2013-05-19 21:42:00,70.0,64.0,-100.00,ESE,110,1.0,1.0,79,0.00,,,-99.99,,2013-05-20 01:42:00,
2013-05-19 21:52:00,71.0,64.0,-100.00,SSE,155,1.0,4.0,78,0.00,,,-99.99,,2013-05-20 01:52:00,
2013-05-19 22:02:00,70.0,64.0,-100.00,SSE,150,0.0,3.0,79,0.00,,,-99.99,,2013-05-20 02:02:00,
2013-05-19 22:12:00,69.0,64.0,-100.00,ESE,115,1.0,2.0,82,0.00,,,-99.99,,2013-05-20 02:12:00,
2013-05-19 22:21:00,70.0,64.0,-100.00,SE,135,1.0,1.0,81,0.00,,,-99.99,,2013-05-20 02:21:00,
2013-05-19 22:32:00,70.0,64.0,-100.00,SE,130,1.0,2.0,81,0.00,,,-99.99,,2013-05-20 02:32:00,
2013-05-19 22:42:00,69.0,64.0,-100.00,SE,145,1.0,3.0,81,0.00,,,-99.99,,2013-05-20 02:42:00,
2013-05-19 22:51:00,69.0,64.0,-100.00,South,175,1.0,6.0,82,0.00,,,-99.99,,2013-05-20 02:51:00,
2013-05-19 23:02:00,68.0,64.0,-100.00,SE,125,1.0,2.0,85,0.00,,,-99.99,,2013-05-20 03:02:00,
2013-05-19 23:11:00,69.0,64.0,-100.00,SE,130,0.0,6.0,83,0.00,,,-99.99,,2013-05-20 03:11:00,
2013-05-19 23:21:00,69.0,63.0,-100.00,SSE,165,1.0,4.0,83,0.00,,,-99.99,,2013-05-20 03:21:00,
2013-05-19 23:33:00,68.0,63.0,-100.00,SSE,165,0.0,3.0,84,0.00,,,-99.99,,2013-05-20 03:33:00,
2013-05-19 23:43:00,67.0,63.0,-100.00,SE,130,0.0,2.0,86,0.00,,,-99.99,,2013-05-20 03:43:00,
2013-05-19 23:52:00,67.0,63.0,-100.00,SSE,150,0.0,3.0,87,0.00,,,-99.99,,2013-05-20 03:52:00,